Gulkana, AK

11:41 PM AKDT on September 23, 2017 (GMT -0800)
Gulkana

Weather History for PAGK - March, 2013

Change the Weather History Date:

Friday, March 22, 2013

  Actual Average Record
Temperature  
Mean Temperature 10 °F -  
Max Temperature 28 °F 31 °F 48 °F (2016)
Min Temperature -7 °F 6 °F -25 °F (1959)
Degree Days  
Heating Degree Days 54    
Moisture  
Dew Point 5 °F    
Average Humidity 52    
Maximum Humidity 60    
Minimum Humidity 32    
Precipitation  
Precipitation 0.00 in - - ()
Snow  
Snow 0.00 in - - ()
Snow Depth 6.00 in    
Sea Level Pressure  
Sea Level Pressure 30.04 in    
Wind  
Wind Speed 13 mph (SSE)    
Max Wind Speed 31 mph    
Max Gust Speed 43 mph    
Visibility 10 miles    
Events      
Averages and records for this station are not official NWS values.
T = Trace of Precipitation, MM = Missing Value Source: NWS Daily Summary

Daily Weather History Graph

Daily Weather History Graph

Search for Another Location

Airport or City:

Trip Planner

Search our weather history database for the weather conditions in past years. The results will help you decide how hot, cold, wet, or windy it might be!

Date:

Astronomy

Mar. 22, 2013 Rise Set
Actual Time 7:34 AM AKDT 8:03 PM AKDT
Civil Twilight 6:50 AM AKDT 8:48 PM AKDT
Nautical Twilight 5:55 AM AKDT 9:43 PM AKDT
Astronomical Twilight 4:54 AM AKDT 10:45 PM AKDT
Moon 2:29 PM AKDT (3/22) 5:55 AM AKDT (3/22)
Length of Visible Light 13h 58m
Length of Day
12h 28m
Waxing Gibbous, 78% of the Moon is Illuminated
Mar 22
Waxing Gibbous
Mar 27
Full
Apr 2
Last Quarter
Apr 10
New
Apr 18
First Quarter

Hourly Weather History & Observations

Time (AKDT) Temp. Windchill Dew Point Humidity Pressure Visibility Wind Dir Wind Speed Gust Speed Precip Events Conditions
12:53 AM 12.9 °F 1.6 °F -6.0 °F 43% 30.22 in 10.0 mi SE 8.1 mph - N/A   Overcast
1:53 AM 10.9 °F 2.9 °F -5.1 °F 49% 30.22 in 10.0 mi ESE 4.6 mph - N/A   Overcast
2:53 AM 9.0 °F - -7.1 °F 48% 30.19 in 10.0 mi Calm Calm - N/A   Overcast
3:53 AM 5.0 °F -8.1 °F -8.0 °F 55% 30.20 in 10.0 mi North 8.1 mph - N/A   Overcast
4:53 AM 3.9 °F - -9.0 °F 55% 30.19 in 10.0 mi Calm Calm - N/A   Scattered Clouds
5:53 AM 3.9 °F -5.3 °F -9.0 °F 55% 30.17 in 10.0 mi North 4.6 mph - N/A   Overcast
6:53 AM 3.9 °F -3.4 °F -7.1 °F 60% 30.16 in 10.0 mi NW 3.5 mph - N/A   Overcast
7:53 AM 3.9 °F -3.4 °F -8.0 °F 58% 30.15 in 10.0 mi North 3.5 mph - N/A   Overcast
8:53 AM 12.0 °F -2.0 °F -0.0 °F 59% 30.12 in 10.0 mi SSE 11.5 mph - N/A   Mostly Cloudy
9:53 AM 16.0 °F -0.4 °F 3.9 °F 59% 30.10 in 10.0 mi SSE 18.4 mph - N/A   Mostly Cloudy
10:53 AM 19.0 °F 3.6 °F 6.1 °F 57% 30.09 in 10.0 mi South 18.4 mph - N/A   Mostly Cloudy
11:53 AM 23.0 °F 9.6 °F 8.1 °F 53% 30.06 in 10.0 mi SSE 16.1 mph 28.8 mph N/A   Mostly Cloudy
12:53 PM 25.0 °F 10.6 °F 10.0 °F 53% 30.04 in 10.0 mi SSE 20.7 mph 29.9 mph N/A   Mostly Cloudy
1:53 PM 27.0 °F 13.5 °F 10.9 °F 51% 30.02 in 10.0 mi SSE 19.6 mph 32.2 mph N/A   Overcast
2:53 PM 28.0 °F 13.3 °F 10.9 °F 49% 30.00 in 10.0 mi SSE 25.3 mph 36.8 mph N/A   Overcast
3:53 PM 28.9 °F 13.2 °F 10.9 °F 47% 29.99 in 10.0 mi SSE 31.1 mph 42.6 mph N/A   Overcast
4:53 PM 28.9 °F 14.3 °F 12.0 °F 49% 29.98 in 10.0 mi SSE 26.5 mph 38.0 mph N/A   Overcast
5:53 PM 28.0 °F 12.5 °F 12.9 °F 53% 29.97 in 10.0 mi SSE 28.8 mph 38.0 mph N/A   Mostly Cloudy
6:53 PM 28.0 °F 12.5 °F 12.9 °F 53% 29.95 in 10.0 mi SSE 28.8 mph 39.1 mph N/A   Mostly Cloudy
7:53 PM 26.1 °F 13.1 °F 12.0 °F 55% 29.94 in 10.0 mi SSE 17.3 mph 27.6 mph N/A   Mostly Cloudy
8:53 PM 26.1 °F 12.7 °F 12.0 °F 55% 29.92 in 10.0 mi SSE 18.4 mph 25.3 mph N/A   Mostly Cloudy
9:27 PM 26.1 °F 11.6 °F 12.0 °F 55% 29.79 in 10.0 mi SSE 21.9 mph 28.8 mph N/A   Scattered Clouds
9:53 PM 26.1 °F 10.7 °F 12.9 °F 58% 29.90 in 10.0 mi SSE 25.3 mph 32.2 mph N/A   Overcast
10:53 PM 26.1 °F 11.3 °F 12.9 °F 58% 29.87 in 10.0 mi SSE 23.0 mph 33.4 mph N/A   Mostly Cloudy
11:53 PM 27.0 °F 11.6 °F 14.0 °F 58% 29.84 in 10.0 mi SSE 26.5 mph 39.1 mph N/A   Partly Cloudy